Regional Weather Roundup
Issued by NWS

Home | Current Version | Previous Version | Text Only | Print | Product List | Glossary On
Versions: 1 2 3 4 5 6 7 8 9 10 11 12 13 14 15 16 17 18 19 20 21 22 23 24 25 26 27 28 29 30 31 32 33 34 35 36 37 38 39 40 41 42 43 44 45 46 47 48 49 50
000
ASUS43 KIND 150259
RWRIN

WEATHER ROUNDUP FOR INDIANA
NATIONAL WEATHER SERVICE INDIANAPOLIS IN
1100 PM EDT SUN SEP 14 2014

NOTE: "FAIR" INDICATES FEW OR NO CLOUDS BELOW 12,000 FEET WITH NO
SIGNIFICANT WEATHER AND/OR OBSTRUCTIONS TO VISIBILITY.

* - STATION DOES NOT REPORT WEATHER SUCH AS PRECIPITATION OR FOG.

+ - STATION NOT QUALITY CONTROLLED BY THE NATIONAL WEATHER SERVICE.
    USE DATA WITH CAUTION...ESPECIALLY DEWPOINT AND RELATIVE
    HUMIDITY OBSERVATIONS.

INZ001>003-010>013-019-020-150400-
NORTHWEST INDIANA

CITY           SKY/WX    TMP DP  RH WIND       PRES   REMARKS
GARY /AIRPORT/ CLEAR     50  48  93 CALM      30.19S
KNOX *+        CLEAR     48  46  92 CALM      30.19S
VALPARAISO     CLEAR     50  47  89 CALM      30.20S

$$

LMZ046-743>745-150400-
SOUTHERN LAKE MICHIGAN

STATION/POSITION TIME  TEMP WIND        PRES
                       AIR  DIR/SP/G
                 (UTC) (F)  (DEG/KT/KT) (MB)
MICHIGAN CITY    0200   59  140/  5/  7   N/A

$$

INZ004-005-014>016-021>024-150400-
NORTH CENTRAL INDIANA

CITY           SKY/WX    TMP DP  RH WIND       PRES   REMARKS
GOSHEN         CLEAR     48  46  93 CALM      30.20S
SOUTH BEND     CLEAR     50  45  83 CALM      30.20F
WARSAW +       CLEAR     46  46 100 CALM      30.21S

$$

INZ006>009-017-018-025>027-150400-
NORTHEAST INDIANA

CITY           SKY/WX    TMP DP  RH WIND       PRES   REMARKS
ANGOLA *+      CLEAR     48  46  93 CALM      30.21S
FORT WAYNE     PTCLDY    49  46  90 CALM      30.22S

$$

INZ028-029-035-036-043>045-051>053-150400-
WEST CENTRAL INDIANA

CITY           SKY/WX    TMP DP  RH WIND       PRES   REMARKS
GREENCASTLE +  CLEAR     50  48  93 CALM      30.21F
LAFAYETTE      CLEAR     51  48  89 CALM      30.20S
TERRE HAUTE    CLEAR     50  46  86 CALM      30.21S

$$

INZ030>032-037>040-046>048-054>057-064-065-150400-
CENTRAL INDIANA

CITY           SKY/WX    TMP DP  RH WIND       PRES   REMARKS
FRANKFORT +    CLEAR    N/A N/A N/A CALM      30.21S
INDIANAPOLIS   CLEAR     57  48  72 SW3       30.20S
-EAGLE CREEK   CLEAR     54  48  80 SW3       30.20F
KOKOMO *+      CLEAR     48  45  87 CALM      30.21S
MT COMFORT *+  CLEAR     50  50 100 CALM      30.21F
SHELBYVILLE    CLEAR     52  48  86 CALM      30.21S
ZIONSVILLE +   CLEAR     48  45  87 CALM      30.21F

$$

INZ033-034-041-042-049-050-058-059-150400-
EAST CENTRAL INDIANA

CITY           SKY/WX    TMP DP  RH WIND       PRES   REMARKS
MUNCIE         CLEAR     51  47  86 CALM      30.21S

$$

INZ060-061-067>069-081>083-085>088-150400-
SOUTHWEST INDIANA

CITY           SKY/WX    TMP DP  RH WIND       PRES   REMARKS
EVANSVILLE     CLEAR     57  50  77 CALM      30.21S

$$

INZ062-063-066-070>080-084-089>092-150400-
SOUTH CENTRAL AND SOUTHEAST INDIANA

CITY           SKY/WX    TMP DP  RH WIND       PRES   REMARKS
BLOOMINGTON    CLEAR     48  45  89 CALM      30.22S

$$



USA.gov is the U.S. government's official web portal to all federal, state and local government web resources and services.